Weather History for KCKC - January, 2013

Change the Weather History Date:

Thursday, January 31, 2013

  Actual Average Record
Temperature  
Mean Temperature -4 °F -  
Max Temperature 1 °F 19 °F 39 °F (1999)
Min Temperature -9 °F 3 °F -20 °F (2014)
Degree Days  
Heating Degree Days 69    
Moisture  
Dew Point -12 °F    
Average Humidity 67    
Maximum Humidity 78    
Minimum Humidity 56    
Precipitation  
Precipitation 0.00 in - - ()
Sea Level Pressure  
Sea Level Pressure 29.68 in    
Wind  
Wind Speed 15 mph (NW)    
Max Wind Speed 20 mph    
Max Gust Speed 32 mph    
Visibility 8 miles    
Events Snow    
Averages and records for this station are not official NWS values.
T = Trace of Precipitation, MM = Missing Value Source: NWS Daily Summary

Daily Weather History Graph

Daily Weather History Graph

Search for Another Location

Airport or City:

Trip Planner

Search our weather history database for the weather conditions in past years. The results will help you decide how hot, cold, wet, or windy it might be!

Date:

Astronomy

Jan. 31, 2013 Rise Set
Actual Time 7:29 AM CST 5:01 PM CST
Civil Twilight 6:56 AM CST 5:34 PM CST
Nautical Twilight 6:19 AM CST 6:11 PM CST
Astronomical Twilight 5:43 AM CST 6:47 PM CST
Moon 10:31 PM CST (1/31) 9:04 AM CST (1/31)
Length of Visible Light 10h 37m
Length of Day
9h 31m
Waning Gibbous, 79% of the Moon is Illuminated
Jan 31
Waning Gibbous
Feb 3
Last Quarter
Feb 10
New
Feb 17
First Quarter
Feb 25
Full

Hourly Weather History & Observations

Time (CST) Temp. Windchill Dew Point Humidity Pressure Visibility Wind Dir Wind Speed Gust Speed Precip Events Conditions
12:14 AM -0.4 °F -21.2 °F -7.6 °F 72% 29.48 in 10.0 mi NNW 17.3 mph 27.6 mph N/A   Scattered Clouds
12:34 AM -0.4 °F -22.3 °F -7.6 °F 72% 29.48 in 10.0 mi NNW 19.6 mph 25.3 mph N/A   Scattered Clouds
12:54 AM -0.4 °F -21.7 °F -7.6 °F 72% 29.48 in 10.0 mi NNW 18.4 mph 27.6 mph N/A   Mostly Cloudy
1:13 AM -0.4 °F -19.9 °F -7.6 °F 72% 29.49 in 10.0 mi NNW 15.0 mph 23.0 mph N/A   Mostly Cloudy
1:33 AM -0.4 °F -21.2 °F -7.6 °F 72% 29.50 in 10.0 mi NNW 17.3 mph 24.2 mph N/A   Mostly Cloudy
1:54 AM -0.4 °F -19.2 °F -7.6 °F 72% 29.51 in 10.0 mi NW 13.8 mph 23.0 mph N/A   Mostly Cloudy
2:14 AM -0.4 °F -14.7 °F -7.6 °F 72% 29.52 in 10.0 mi NW 8.1 mph 18.4 mph N/A   Overcast
2:33 AM -0.4 °F -16.7 °F -7.6 °F 72% 29.52 in 7.0 mi NW 10.4 mph 18.4 mph N/A   Overcast
2:48 AM -0.4 °F -19.2 °F -7.6 °F 72% 29.52 in 7.0 mi NW 13.8 mph 20.7 mph N/A   Overcast
3:14 AM -2.2 °F -18.9 °F -7.6 °F 78% 29.52 in 4.0 mi NW 10.4 mph 17.3 mph N/A Snow Light Snow
3:34 AM -2.2 °F -18.9 °F -7.6 °F 78% 29.52 in 3.0 mi NW 10.4 mph 17.3 mph N/A Snow Light Snow
3:53 AM -2.2 °F -20.7 °F -9.4 °F 71% 29.53 in 4.0 mi NW 12.7 mph 19.6 mph N/A Snow Light Snow
4:14 AM -2.2 °F -18.9 °F -9.4 °F 71% 29.53 in 3.0 mi NW 10.4 mph 23.0 mph N/A Snow Light Snow
4:33 AM -2.2 °F -20.7 °F -9.4 °F 71% 29.53 in 5.0 mi NW 12.7 mph 20.7 mph N/A Snow Light Snow
4:54 AM -2.2 °F -21.5 °F -9.4 °F 71% 29.54 in 4.0 mi NW 13.8 mph 19.6 mph N/A Snow Light Snow
5:14 AM -2.2 °F -22.9 °F -11.2 °F 66% 29.54 in 5.0 mi NW 16.1 mph 24.2 mph N/A Snow Light Snow
5:33 AM -2.2 °F -22.2 °F -11.2 °F 66% 29.54 in 4.0 mi NW 15.0 mph 21.9 mph N/A Snow Light Snow
5:54 AM -4.0 °F -24.5 °F -11.2 °F 71% 29.55 in 5.0 mi NW 15.0 mph 21.9 mph N/A Snow Light Snow
6:13 AM -4.0 °F -21.2 °F -11.2 °F 71% 29.56 in 4.0 mi NW 10.4 mph 20.7 mph N/A Snow Light Snow
6:34 AM -5.8 °F -26.8 °F -11.2 °F 77% 29.57 in 5.0 mi NW 15.0 mph 20.7 mph N/A Snow Light Snow
6:53 AM -5.8 °F -27.5 °F -14.8 °F 65% 29.57 in 4.0 mi NW 16.1 mph 27.6 mph N/A Snow Light Snow
7:14 AM -5.8 °F -26.8 °F -14.8 °F 65% 29.58 in 5.0 mi NW 15.0 mph 24.2 mph N/A Snow Light Snow
7:33 AM -5.8 °F -26.8 °F -14.8 °F 65% 29.59 in 7.0 mi NW 15.0 mph 26.5 mph N/A   Scattered Clouds
7:53 AM -7.6 °F -29.1 °F -14.8 °F 71% 29.60 in 7.0 mi NW 15.0 mph 25.3 mph N/A   Clear
8:14 AM -7.6 °F -31.7 °F -14.8 °F 71% 29.60 in 7.0 mi NW 19.6 mph 26.5 mph N/A   Clear
8:33 AM -5.8 °F -27.5 °F -14.8 °F 65% 29.61 in 10.0 mi NW 16.1 mph 24.2 mph N/A   Clear
8:54 AM -5.8 °F -27.5 °F -14.8 °F 65% 29.62 in 10.0 mi NW 16.1 mph 25.3 mph N/A   Clear
9:19 AM -5.8 °F -26.8 °F -14.8 °F 65% 29.63 in 10.0 mi NW 15.0 mph 25.3 mph N/A   Clear
9:33 AM -5.8 °F -28.2 °F -14.8 °F 65% 29.63 in 7.0 mi NW 17.3 mph 26.5 mph N/A   Clear
9:54 AM -5.8 °F -25.2 °F -14.8 °F 65% 29.64 in 7.0 mi NNW 12.7 mph 27.6 mph N/A   Clear
10:14 AM -4.0 °F -26.4 °F -14.8 °F 60% 29.65 in 7.0 mi NNW 18.4 mph 28.8 mph N/A   Clear
10:33 AM -4.0 °F -26.4 °F -14.8 °F 60% 29.66 in 10.0 mi NW 18.4 mph 28.8 mph N/A   Clear
10:58 AM -2.2 °F -23.5 °F -13.0 °F 60% 29.67 in 10.0 mi NNW 17.3 mph 25.3 mph N/A   Clear
11:14 AM -0.4 °F -20.5 °F -11.2 °F 60% 29.68 in 10.0 mi NW 16.1 mph 26.5 mph N/A   Clear
11:34 AM -0.4 °F -20.5 °F -11.2 °F 60% 29.68 in 10.0 mi NW 16.1 mph 24.2 mph N/A   Clear
12:13 PM -0.4 °F -17.6 °F -11.2 °F 60% 29.68 in 10.0 mi NW 11.5 mph 25.3 mph N/A   Clear
12:33 PM -0.4 °F -19.9 °F -11.2 °F 60% 29.69 in 10.0 mi NW 15.0 mph 21.9 mph N/A   Clear
12:54 PM 1.4 °F -15.3 °F -11.2 °F 56% 29.70 in 10.0 mi NW 11.5 mph 20.7 mph N/A   Clear
1:14 PM 1.4 °F -16.1 °F -11.2 °F 56% 29.70 in 10.0 mi WNW 12.7 mph 20.7 mph N/A   Clear
1:33 PM -0.4 °F -20.5 °F -11.2 °F 60% 29.71 in 10.0 mi NW 16.1 mph 29.9 mph N/A   Clear
1:54 PM -0.4 °F -19.9 °F -11.2 °F 60% 29.72 in 10.0 mi WNW 15.0 mph 21.9 mph N/A   Clear
2:14 PM -0.4 °F -18.4 °F -11.2 °F 60% 29.72 in 10.0 mi NW 12.7 mph 25.3 mph N/A   Clear
2:33 PM -0.4 °F -19.9 °F -11.2 °F 60% 29.73 in 10.0 mi NW 15.0 mph 24.2 mph N/A   Clear
2:54 PM 1.4 °F -16.1 °F -11.2 °F 56% 29.74 in 10.0 mi WNW 12.7 mph 23.0 mph N/A   Clear
3:14 PM -0.4 °F -19.9 °F -11.2 °F 60% 29.74 in 7.0 mi NW 15.0 mph 21.9 mph N/A   Clear
3:33 PM -0.4 °F -19.9 °F -11.2 °F 60% 29.75 in 5.0 mi NW 15.0 mph 25.3 mph N/A   Haze
3:54 PM -0.4 °F -21.7 °F -11.2 °F 60% 29.76 in 10.0 mi NW 18.4 mph 25.3 mph N/A   Scattered Clouds
4:14 PM -0.4 °F -18.4 °F -11.2 °F 60% 29.77 in 10.0 mi NW 12.7 mph 25.3 mph N/A   Clear
4:33 PM -2.2 °F -22.9 °F -11.2 °F 66% 29.77 in 10.0 mi NW 16.1 mph 23.0 mph N/A   Clear
4:54 PM -2.2 °F -21.5 °F -11.2 °F 66% 29.78 in 10.0 mi WNW 13.8 mph 23.0 mph N/A   Scattered Clouds
5:13 PM -2.2 °F -22.2 °F -11.2 °F 66% 29.79 in 10.0 mi WNW 15.0 mph 23.0 mph N/A   Scattered Clouds
5:33 PM -2.2 °F -24.7 °F -11.2 °F 66% 29.79 in 10.0 mi WNW 19.6 mph 27.6 mph N/A   Scattered Clouds
5:54 PM -2.2 °F -20.7 °F -11.2 °F 66% 29.80 in 10.0 mi NW 12.7 mph 25.3 mph N/A   Scattered Clouds
6:13 PM -2.2 °F -23.5 °F -11.2 °F 66% 29.81 in 10.0 mi NW 17.3 mph 28.8 mph N/A   Scattered Clouds
6:34 PM -4.0 °F -24.5 °F -11.2 °F 71% 29.82 in 10.0 mi NW 15.0 mph 28.8 mph N/A   Scattered Clouds
6:53 PM -4.0 °F -26.4 °F -11.2 °F 71% 29.83 in 10.0 mi NW 18.4 mph 24.2 mph N/A   Mostly Cloudy
7:14 PM -4.0 °F -26.4 °F -11.2 °F 71% 29.83 in 10.0 mi NW 18.4 mph 26.5 mph N/A   Scattered Clouds
7:34 PM -4.0 °F -23.7 °F -11.2 °F 71% 29.84 in 10.0 mi NW 13.8 mph 32.2 mph N/A   Scattered Clouds
7:54 PM -5.8 °F -28.2 °F -11.2 °F 77% 29.84 in 10.0 mi NW 17.3 mph 25.3 mph N/A   Scattered Clouds
8:13 PM -5.8 °F -28.2 °F -13.0 °F 71% 29.84 in 10.0 mi NW 17.3 mph 29.9 mph N/A   Scattered Clouds
8:33 PM -5.8 °F -28.2 °F -13.0 °F 71% 29.84 in 10.0 mi NW 17.3 mph 27.6 mph N/A   Scattered Clouds
9:14 PM -5.8 °F -27.5 °F -14.8 °F 65% 29.85 in 10.0 mi NW 16.1 mph 31.1 mph N/A   Clear
9:34 PM -5.8 °F -27.5 °F -14.8 °F 65% 29.85 in 10.0 mi NW 16.1 mph 25.3 mph N/A   Clear
10:13 PM -5.8 °F -27.5 °F -14.8 °F 65% 29.87 in 10.0 mi NW 16.1 mph 25.3 mph N/A   Scattered Clouds
10:33 PM -7.6 °F -25.7 °F -14.8 °F 71% 29.87 in 10.0 mi NW 10.4 mph 24.2 mph N/A   Scattered Clouds
10:54 PM -7.6 °F -23.4 °F -14.8 °F 71% 29.88 in 10.0 mi WNW 8.1 mph - N/A   Scattered Clouds
11:14 PM -7.6 °F -25.7 °F -14.8 °F 71% 29.89 in 10.0 mi WNW 10.4 mph 16.1 mph N/A   Clear
11:34 PM -9.4 °F -27.9 °F -16.6 °F 71% 29.89 in 10.0 mi WNW 10.4 mph 18.4 mph N/A   Clear
11:53 PM -9.4 °F -24.3 °F -16.6 °F 71% 29.89 in 10.0 mi WNW 6.9 mph - N/A   Clear